This is the latest recevied weather packets stored in our database for station/object DG4DAZ-6. If no packets are shown the sender has not sent any weather packets the latest 1 day(s).
| Time | Temp. | Humidity | Pressure | Rain* | Wind** | Luminosity | Snow |
|---|---|---|---|---|---|---|---|
| 1777974683 | 13.89° C | 92% | 1008.1 hPa | 0 mm | 0 m/s | 176 W/m² | - |
| 1777974083 | 13.33° C | 92% | 1008.1 hPa | 0 mm | 0 m/s | 182 W/m² | - |
| 1777973482 | 13.33° C | 92% | 1008.1 hPa | 0 mm | 0 m/s | 160 W/m² | - |
| 1777972882 | 13.33° C | 93% | 1008.1 hPa | 0 mm | 0 m/s | 158 W/m² | - |
| 1777972284 | 13.33° C | 93% | 1008.2 hPa | 0 mm | 0 m/s | 189 W/m² | - |
| 1777971682 | 13.33° C | 94% | 1008.2 hPa | 0.25 mm | 0 m/s | 166 W/m² | - |
| 1777971083 | 12.78° C | 94% | 1008.2 hPa | 0.25 mm | 0 m/s | 116 W/m² | - |
| 1777970483 | 12.78° C | 95% | 1008.2 hPa | 0.25 mm | 0 m/s | 161 W/m² | - |
| 1777969882 | 12.78° C | 95% | 1008.3 hPa | 0.25 mm | 0 m/s | 167 W/m² | - |
| 1777969284 | 12.78° C | 95% | 1008.4 hPa | 0.25 mm | 0 m/s | 132 W/m² | - |
| 1777968697 | 12.22° C | 95% | 1008.4 hPa | 0.25 mm | 0 m/s | 79 W/m² | - |
| 1777968083 | 12.22° C | 95% | 1008.4 hPa | 0 mm | 0 m/s | 73 W/m² | - |
| 1777967482 | 12.78° C | 95% | 1008.5 hPa | 0 mm | 0 m/s | 86 W/m² | - |
| 1777966884 | 12.78° C | 95% | 1008.4 hPa | 0 mm | 0 m/s | 133 W/m² | - |
| 1777966283 | 12.22° C | 96% | 1008.5 hPa | 0 mm | 0 m/s | 125 W/m² | - |
| 1777965682 | 12.22° C | 95% | 1008.5 hPa | 0 mm | 0 m/s | 81 W/m² | - |
| 1777965084 | 12.22° C | 96% | 1008.6 hPa | 0 mm | 0 m/s | 75 W/m² | - |
| 1777964484 | 12.22° C | 96% | 1008.6 hPa | 0 mm | 0 m/s | 141 W/m² | - |
| 1777963883 | 11.67° C | 96% | 1008.6 hPa | 0.51 mm | 0 m/s | 144 W/m² | - |
| 1777963282 | 11.67° C | 96% | 1008.6 hPa | 0.76 mm | 0 m/s | 49 W/m² | - |
| 1777962684 | 11.67° C | 96% | 1008.8 hPa | 0.76 mm | 0 m/s | 58 W/m² | - |
| 1777962083 | 11.67° C | 95% | 1008.8 hPa | 1.02 mm | 0 m/s | 50 W/m² | - |
| 1777961483 | 11.67° C | 95% | 1008.8 hPa | 1.27 mm | 0 m/s | 65 W/m² | - |
| 1777960882 | 11.67° C | 95% | 1008.9 hPa | 1.52 mm | 0 m/s | 60 W/m² | - |
| 1777960282 | 11.11° C | 95% | 1008.9 hPa | 1.02 mm | 0 m/s | 48 W/m² | - |
* Rain latest hour (hover to see other rain measurements)
** Current wind speed in m/s (hover to see current wind gust speed)